| time (UTC) | temp F | wind direction | speed MPH | gust MPH | rain 1hr in | rain 24hr in | rain mn in | humidity % | barometer mb |
| 20260508133017 | 58 | 113 | 3.0 | 11.0 | 0.00 | 0.00 | 0.00 | 59 | 1022.2 |
| 20260508132015 | 57 | 270 | 2.0 | 7.0 | 0.00 | 0.00 | 0.00 | 59 | 1022.1 |
| 20260508131017 | 57 | 248 | 3.0 | 10.0 | 0.00 | 0.00 | 0.00 | 58 | 1022.1 |
| 20260508130017 | 58 | 90 | 2.0 | 9.0 | 0.00 | 0.00 | 0.00 | 58 | 1022.1 |
| 20260508125017 | 57 | 248 | 3.0 | 12.0 | 0.00 | 0.00 | 0.00 | 60 | 1022.0 |
| 20260508124019 | 57 | 270 | 3.0 | 13.0 | 0.00 | 0.00 | 0.00 | 60 | 1021.9 |
| 20260508123037 | 57 | 248 | 3.0 | 10.0 | 0.00 | 0.00 | 0.00 | 59 | 1021.8 |
| 20260508122017 | 57 | 90 | 3.0 | 9.0 | 0.00 | 0.00 | 0.00 | 59 | 1021.8 |
| 20260508121017 | 57 | 90 | 3.0 | 11.0 | 0.00 | 0.00 | 0.00 | 58 | 1021.9 |
| 20260508120017 | 57 | 90 | 2.0 | 11.0 | 0.00 | 0.00 | 0.00 | 60 | 1021.9 |
| 20260508115017 | 56 | 113 | 3.0 | 10.0 | 0.00 | 0.00 | 0.00 | 61 | 1021.8 |
| 20260508114017 | 56 | 90 | 3.0 | 9.0 | 0.00 | 0.00 | 0.00 | 59 | 1021.8 |
| 20260508113017 | 56 | 113 | 4.0 | 10.0 | 0.00 | 0.00 | 0.00 | 59 | 1021.8 |
| 20260508112037 | 56 | 113 | 2.0 | 9.0 | 0.00 | 0.00 | 0.00 | 60 | 1021.6 |
| 20260508111037 | 55 | 113 | 3.0 | 10.0 | 0.00 | 0.00 | 0.00 | 61 | 1021.6 |
| 20260508110017 | 54 | 113 | 1.0 | 7.0 | 0.00 | 0.00 | 0.00 | 64 | 1021.7 |
| 20260508105019 | 53 | 270 | 2.0 | 8.0 | 0.00 | 0.00 | 0.00 | 65 | 1021.7 |
| 20260508104017 | 53 | 113 | 3.0 | 8.0 | 0.00 | 0.00 | 0.00 | 65 | 1021.6 |
| 20260508103018 | 53 | 113 | 2.0 | 7.0 | 0.00 | 0.00 | 0.00 | 66 | 1021.6 |
| 20260508102017 | 53 | 113 | 1.0 | 6.0 | 0.00 | 0.00 | 0.00 | 67 | 1021.5 |
| 20260508101017 | 53 | 248 | 2.0 | 9.0 | 0.00 | 0.00 | 0.00 | 68 | 1021.4 |
| 20260508100017 | 53 | 90 | 1.0 | 5.0 | 0.00 | 0.00 | 0.00 | 69 | 1021.3 |
| 20260508095017 | 53 | 113 | 2.0 | 9.0 | 0.00 | 0.00 | 0.00 | 69 | 1021.3 |
| 20260508094018 | 52 | 0.0 | 5.0 | 0.00 | 0.00 | 0.00 | 71 | 1021.1 | |
| 20260508093038 | 52 | 248 | 1.0 | 5.0 | 0.00 | 0.00 | 0.00 | 71 | 1020.9 |
| 20260508092140 | 52 | 0.0 | 3.0 | 0.00 | 0.00 | 0.00 | 74 | 1020.9 | |
| 20260508091017 | 51 | 248 | 1.0 | 6.0 | 0.00 | 0.00 | 0.00 | 74 | 1021.0 |
| 20260508090017 | 52 | 248 | 2.0 | 10.0 | 0.00 | 0.00 | 0.00 | 73 | 1020.9 |
| 20260508085018 | 52 | 248 | 2.0 | 6.0 | 0.00 | 0.00 | 0.00 | 72 | 1020.8 |
| 20260508084017 | 52 | 248 | 2.0 | 7.0 | 0.00 | 0.00 | 0.00 | 72 | 1020.6 |
| 20260508083018 | 52 | 113 | 1.0 | 7.0 | 0.00 | 0.00 | 0.00 | 72 | 1020.7 |
| 20260508082017 | 52 | 90 | 2.0 | 6.0 | 0.00 | 0.00 | 0.00 | 72 | 1020.6 |
| 20260508081018 | 52 | 248 | 1.0 | 7.0 | 0.00 | 0.00 | 0.00 | 74 | 1020.6 |
| 20260508080017 | 52 | 90 | 1.0 | 5.0 | 0.00 | 0.00 | 0.00 | 76 | 1020.4 |
| 20260508075017 | 51 | 248 | 1.0 | 7.0 | 0.00 | 0.00 | 0.00 | 76 | 1020.3 |
| 20260508074017 | 51 | 90 | 2.0 | 5.0 | 0.00 | 0.00 | 0.00 | 78 | 1020.2 |
| 20260508073018 | 51 | 90 | 2.0 | 8.0 | 0.00 | 0.00 | 0.00 | 78 | 1020.0 |
| 20260508072019 | 51 | 90 | 2.0 | 6.0 | 0.00 | 0.00 | 0.00 | 78 | 1019.9 |
| 20260508071018 | 51 | 90 | 1.0 | 3.0 | 0.00 | 0.00 | 0.00 | 79 | 1019.7 |
| 20260508070017 | 51 | 113 | 1.0 | 5.0 | 0.00 | 0.00 | 0.00 | 80 | 1019.5 |
| 20260508065040 | 50 | 90 | 1.0 | 4.0 | 0.00 | 0.00 | 0.00 | 80 | 1019.4 |
| 20260508064018 | 50 | 113 | 1.0 | 5.0 | 0.00 | 0.00 | 0.00 | 80 | 1019.4 |
| 20260508063017 | 50 | 0.0 | 4.0 | 0.00 | 0.00 | 0.00 | 81 | 1019.3 | |
| 20260508062017 | 50 | 0.0 | 2.0 | 0.00 | 0.00 | 0.00 | 81 | 1019.3 | |
| 20260508061017 | 50 | 0.0 | 4.0 | 0.00 | 0.00 | 0.00 | 82 | 1019.2 | |
| 20260508060017 | 50 | 0.0 | 4.0 | 0.00 | 0.00 | 0.00 | 82 | 1019.2 | |
| 20260508055018 | 50 | 0.0 | 2.0 | 0.00 | 0.00 | 0.00 | 83 | 1018.9 | |
| 20260508054016 | 50 | 0.0 | 1.0 | 0.00 | 0.00 | 0.00 | 83 | 1018.7 | |
| 20260508053018 | 50 | 0.0 | 1.0 | 0.00 | 0.00 | 0.00 | 83 | 1018.7 | |
| 20260508052038 | 50 | 0.0 | 1.0 | 0.00 | 0.00 | 0.00 | 83 | 1018.5 | |
| 20260508051017 | 49 | 0.0 | 2.0 | 0.00 | 0.00 | 0.00 | 83 | 1018.4 | |
| 20260508050058 | 49 | 0.0 | 2.0 | 0.00 | 0.00 | 0.00 | 83 | 1018.3 | |
| 20260508045018 | 49 | 0.0 | 2.0 | 0.00 | 0.00 | 0.00 | 82 | 1018.2 | |
| 20260508044017 | 49 | 0.0 | 2.0 | 0.00 | 0.00 | 0.00 | 82 | 1018.2 | |
| 20260508043018 | 50 | 0.0 | 1.0 | 0.00 | 0.00 | 0.00 | 81 | 1018.1 | |
| 20260508042018 | 50 | 0.0 | 2.0 | 0.00 | 0.00 | 0.00 | 81 | 1018.1 | |
| 20260508041020 | 50 | 0.0 | 2.0 | 0.00 | 0.00 | 0.00 | 81 | 1018.0 | |
| 20260508040017 | 50 | 0.0 | 3.0 | 0.00 | 0.00 | 0.00 | 81 | 1018.0 | |
| 20260508035017 | 50 | 90 | 1.0 | 4.0 | 0.00 | 0.00 | 0.00 | 81 | 1017.9 |
| 20260508034017 | 50 | 0.0 | 4.0 | 0.00 | 0.00 | 0.00 | 81 | 1017.8 | |
| 20260508033016 | 50 | 90 | 1.0 | 4.0 | 0.00 | 0.00 | 0.00 | 80 | 1017.7 |
| 20260508032016 | 50 | 90 | 1.0 | 4.0 | 0.00 | 0.00 | 0.00 | 80 | 1017.7 |
| 20260508031017 | 50 | 90 | 1.0 | 6.0 | 0.00 | 0.00 | 0.00 | 80 | 1017.7 |
| 20260508030016 | 50 | 90 | 1.0 | 6.0 | 0.00 | 0.00 | 0.00 | 80 | 1017.6 |
| 20260508025017 | 50 | 90 | 2.0 | 6.0 | 0.00 | 0.00 | 0.00 | 80 | 1017.6 |
| 20260508024038 | 50 | 90 | 1.0 | 4.0 | 0.00 | 0.00 | 0.00 | 80 | 1017.6 |
| 20260508023018 | 50 | 90 | 2.0 | 6.0 | 0.00 | 0.00 | 0.00 | 79 | 1017.7 |
| 20260508022018 | 50 | 90 | 2.0 | 6.0 | 0.00 | 0.00 | 0.00 | 79 | 1017.6 |
| 20260508021016 | 50 | 90 | 2.0 | 7.0 | 0.00 | 0.00 | 0.00 | 79 | 1017.6 |
| 20260508020016 | 50 | 90 | 2.0 | 6.0 | 0.00 | 0.00 | 0.00 | 78 | 1017.6 |
| 20260508015040 | 50 | 90 | 2.0 | 6.0 | 0.00 | 0.00 | 0.00 | 78 | 1017.6 |
| 20260508014016 | 50 | 90 | 1.0 | 6.0 | 0.00 | 0.00 | 0.00 | 78 | 1017.5 |
| 20260508013016 | 50 | 90 | 1.0 | 7.0 | 0.00 | 0.00 | 0.00 | 77 | 1017.4 |
| 20260508012016 | 50 | 90 | 1.0 | 7.0 | 0.00 | 0.00 | 0.00 | 77 | 1017.5 |
| 20260508011018 | 50 | 0.0 | 2.0 | 0.00 | 0.00 | 0.00 | 77 | 1017.4 | |
| 20260508010016 | 50 | 0.0 | 4.0 | 0.00 | 0.00 | 0.00 | 76 | 1017.4 | |
| 20260508005016 | 50 | 0.0 | 2.0 | 0.00 | 0.00 | 0.00 | 76 | 1017.5 | |
| 20260508004018 | 50 | 90 | 1.0 | 5.0 | 0.00 | 0.00 | 0.00 | 76 | 1017.6 |
| 20260508003016 | 50 | 0.0 | 2.0 | 0.00 | 0.00 | 0.00 | 76 | 1017.7 | |
| 20260508002016 | 50 | 90 | 1.0 | 6.0 | 0.00 | 0.00 | 0.00 | 76 | 1017.6 |
| 20260508001016 | 50 | 90 | 1.0 | 4.0 | 0.00 | 0.00 | 0.00 | 76 | 1017.6 |
| 20260508000016 | 50 | 90 | 1.0 | 6.0 | 0.00 | 0.00 | 0.00 | 75 | 1017.6 |
| 20260507235017 | 50 | 90 | 1.0 | 4.0 | 0.00 | 0.00 | 0.00 | 75 | 1017.6 |
| 20260507234017 | 50 | 90 | 1.0 | 8.0 | 0.00 | 0.00 | 0.00 | 75 | 1017.5 |
| 20260507233016 | 51 | 90 | 2.0 | 8.0 | 0.00 | 0.00 | 0.00 | 74 | 1017.4 |
| 20260507232039 | 51 | 90 | 3.0 | 9.0 | 0.00 | 0.00 | 0.00 | 74 | 1017.2 |
| 20260507231016 | 51 | 90 | 3.0 | 12.0 | 0.00 | 0.00 | 0.00 | 75 | 1017.1 |
| 20260507230038 | 51 | 90 | 2.0 | 8.0 | 0.00 | 0.00 | 0.00 | 75 | 1017.2 |
| 20260507225016 | 51 | 90 | 3.0 | 10.0 | 0.00 | 0.00 | 0.00 | 76 | 1017.2 |
| 20260507224017 | 51 | 90 | 2.0 | 11.0 | 0.00 | 0.00 | 0.00 | 76 | 1017.3 |
| 20260507223016 | 51 | 90 | 3.0 | 11.0 | 0.00 | 0.00 | 0.00 | 76 | 1017.3 |
| 20260507222016 | 51 | 90 | 2.0 | 9.0 | 0.00 | 0.00 | 0.00 | 76 | 1017.3 |
| 20260507221036 | 51 | 90 | 3.0 | 11.0 | 0.00 | 0.00 | 0.00 | 76 | 1017.2 |
| 20260507220017 | 51 | 90 | 3.0 | 9.0 | 0.00 | 0.00 | 0.00 | 76 | 1017.1 |
| 20260507215017 | 51 | 90 | 2.0 | 7.0 | 0.00 | 0.00 | 0.00 | 76 | 1017.1 |
| 20260507214016 | 51 | 90 | 2.0 | 8.0 | 0.00 | 0.00 | 0.00 | 76 | 1017.1 |
| 20260507213016 | 51 | 90 | 2.0 | 9.0 | 0.00 | 0.00 | 0.00 | 75 | 1017.1 |
| 20260507212016 | 51 | 90 | 2.0 | 7.0 | 0.00 | 0.00 | 0.00 | 75 | 1017.1 |
| 20260507211017 | 51 | 90 | 1.0 | 8.0 | 0.00 | 0.00 | 0.00 | 75 | 1017.1 |
| 20260507210016 | 52 | 90 | 2.0 | 6.0 | 0.00 | 0.00 | 0.00 | 74 | 1017.1 |
| 20260507205056 | 52 | 90 | 2.0 | 7.0 | 0.00 | 0.00 | 0.00 | 74 | 1017.1 |
| 20260507204016 | 52 | 90 | 2.0 | 8.0 | 0.00 | 0.00 | 0.00 | 73 | 1017.0 |
| 20260507203016 | 53 | 90 | 2.0 | 8.0 | 0.00 | 0.00 | 0.00 | 73 | 1017.0 |
| 20260507202016 | 53 | 90 | 3.0 | 9.0 | 0.00 | 0.00 | 0.00 | 73 | 1016.9 |
| 20260507201036 | 53 | 90 | 3.0 | 12.0 | 0.00 | 0.00 | 0.00 | 73 | 1016.5 |
| 20260507200036 | 53 | 90 | 2.0 | 9.0 | 0.00 | 0.00 | 0.00 | 73 | 1016.5 |
| 20260507195016 | 54 | 90 | 3.0 | 10.0 | 0.00 | 0.00 | 0.00 | 72 | 1016.5 |
| 20260507194015 | 54 | 90 | 2.0 | 8.0 | 0.00 | 0.00 | 0.00 | 72 | 1016.4 |
| 20260507193036 | 54 | 90 | 2.0 | 7.0 | 0.00 | 0.00 | 0.00 | 71 | 1016.4 |
| 20260507192036 | 54 | 90 | 1.0 | 8.0 | 0.00 | 0.00 | 0.00 | 71 | 1016.5 |
| 20260507191016 | 54 | 90 | 1.0 | 6.0 | 0.00 | 0.00 | 0.00 | 71 | 1016.5 |
| 20260507190037 | 54 | 90 | 2.0 | 9.0 | 0.00 | 0.00 | 0.00 | 71 | 1016.6 |
| 20260507185017 | 55 | 90 | 2.0 | 7.0 | 0.00 | 0.00 | 0.00 | 70 | 1016.8 |
| 20260507184015 | 55 | 90 | 2.0 | 8.0 | 0.00 | 0.00 | 0.00 | 70 | 1016.7 |
| 20260507183016 | 55 | 90 | 3.0 | 9.0 | 0.00 | 0.00 | 0.00 | 69 | 1016.7 |
| 20260507182017 | 55 | 90 | 2.0 | 8.0 | 0.00 | 0.00 | 0.00 | 69 | 1016.6 |
| 20260507181035 | 55 | 90 | 3.0 | 9.0 | 0.00 | 0.00 | 0.00 | 68 | 1016.4 |
| 20260507180037 | 55 | 90 | 2.0 | 8.0 | 0.00 | 0.00 | 0.00 | 68 | 1016.5 |
| 20260507175016 | 56 | 90 | 3.0 | 11.0 | 0.00 | 0.00 | 0.00 | 67 | 1016.5 |
| 20260507174016 | 56 | 90 | 3.0 | 9.0 | 0.00 | 0.00 | 0.00 | 66 | 1016.7 |
| 20260507173016 | 56 | 90 | 3.0 | 8.0 | 0.00 | 0.00 | 0.00 | 64 | 1016.6 |
| 20260507172037 | 56 | 90 | 3.0 | 8.0 | 0.00 | 0.00 | 0.00 | 62 | 1016.5 |
| 20260507171017 | 57 | 90 | 4.0 | 12.0 | 0.00 | 0.00 | 0.00 | 61 | 1016.7 |
| 20260507170035 | 57 | 90 | 4.0 | 11.0 | 0.00 | 0.00 | 0.00 | 60 | 1016.6 |
| 20260507165015 | 57 | 90 | 3.0 | 10.0 | 0.00 | 0.00 | 0.00 | 59 | 1016.7 |
| 20260507164015 | 57 | 90 | 4.0 | 11.0 | 0.00 | 0.00 | 0.00 | 58 | 1016.7 |
| 20260507163017 | 58 | 113 | 3.0 | 12.0 | 0.00 | 0.00 | 0.00 | 55 | 1016.6 |
| 20260507162017 | 58 | 90 | 3.0 | 10.0 | 0.00 | 0.00 | 0.00 | 58 | 1016.7 |
| 20260507161017 | 58 | 90 | 3.0 | 10.0 | 0.00 | 0.00 | 0.00 | 58 | 1016.8 |
| 20260507160015 | 58 | 90 | 4.0 | 11.0 | 0.00 | 0.00 | 0.00 | 62 | 1016.8 |
| 20260507155015 | 58 | 90 | 4.0 | 14.0 | 0.00 | 0.00 | 0.00 | 61 | 1016.8 |
| 20260507154019 | 58 | 113 | 6.0 | 17.0 | 0.00 | 0.00 | 0.00 | 56 | 1016.7 |
| 20260507153017 | 57 | 113 | 3.0 | 17.0 | 0.00 | 0.00 | 0.00 | 58 | 1016.7 |
| 20260507152019 | 55 | 113 | 2.0 | 7.0 | 0.00 | 0.00 | 0.00 | 66 | 1016.7 |
| 20260507151017 | 53 | 0.0 | 4.0 | 0.00 | 0.00 | 0.00 | 75 | 1016.9 | |
| 20260507150017 | 53 | 90 | 1.0 | 5.0 | 0.00 | 0.00 | 0.00 | 76 | 1017.0 |
| 20260507145015 | 53 | 90 | 2.0 | 7.0 | 0.00 | 0.00 | 0.00 | 76 | 1017.1 |
| 20260507144019 | 53 | 90 | 2.0 | 5.0 | 0.00 | 0.00 | 0.00 | 76 | 1017.1 |
| 20260507143017 | 53 | 90 | 2.0 | 7.0 | 0.00 | 0.00 | 0.00 | 76 | 1017.1 |
| 20260507142018 | 53 | 90 | 3.0 | 11.0 | 0.00 | 0.00 | 0.00 | 76 | 1017.2 |
| 20260507141037 | 54 | 90 | 2.0 | 8.0 | 0.00 | 0.00 | 0.00 | 75 | 1017.3 |
| 20260507140017 | 56 | 113 | 3.0 | 12.0 | 0.00 | 0.00 | 0.00 | 68 | 1017.3 |
| 20260507135018 | 56 | 90 | 2.0 | 9.0 | 0.00 | 0.00 | 0.00 | 69 | 1017.2 |
| 20260507134018 | 56 | 90 | 2.0 | 10.0 | 0.00 | 0.00 | 0.00 | 69 | 1017.2 |